Tracking 28790 objects as of 19-Apr-2024
HD Live streaming from Space Station
objects crossing your sky now

COSMOS 2251 DEB

Track COSMOS 2251 DEB now!
10-day predictions


NORAD ID: 40808
Int'l Code: 1993-036BWM
Perigee: 713.3 km
Apogee: 737.4 km
Inclination: 74.0 °
Period: 99.2 minutes
Semi major axis: 7096 km
RCS: Unknown
Launch date: June 16, 1993
Source: Commonwealth of Independent States (former USSR) (CIS)
Launch site: PLESETSK MISSILE AND SPACE COMPLEX (PKMTR)

Note: This is SATELLITE DEBRIS
Your satellite tracking list
Your tracking list is empty




NASA's NSSDC Master Catalog

Two Line Element Set (TLE):
1 40808U 93036BWM 24109.29588659  .00013989  00000-0  34363-2 0  9990
2 40808  74.0497 217.0672 0016982  44.4341 346.7111 14.52267883642409
Source of the keplerian elements: AFSPC